UAE777 KATL-KMEM

Flight info

Callsign UAE777
Flight time 0h 51m
Altitude 36000
Route NASSA2 CHOOK WASER VANZE3
Aircraft A333/H-SDE3GHIJ2J3J5M1RVWXY/LB2D1

Departure

Time 2026-05-06 01:01
Airport Hartsfield Jackson Atlanta International Airport (KATL)

Arrival

Time 2026-05-06 01:53
Airport Memphis International Airport (KMEM)
Time Latitude Longitude Altitude Speed Heading
2026-05-06 00:52 33.63731 -84.42041 985 ft 0 kts 92°
2026-05-06 00:55 33.63734 -84.42126 988 ft 24 kts 92°
2026-05-06 00:56 33.63739 -84.42446 1001 ft 46 kts 89°
2026-05-06 00:56 33.63738 -84.42489 1002 ft 0 kts 88°
2026-05-06 00:57 33.63717 -84.42435 1000 ft 12 kts 148°
2026-05-06 00:57 33.63657 -84.42343 997 ft 18 kts 98°
2026-05-06 00:57 33.63656 -84.42169 990 ft 22 kts 90°
2026-05-06 00:57 33.63655 -84.41972 982 ft 24 kts 92°
2026-05-06 00:58 33.63655 -84.41754 972 ft 27 kts 90°
2026-05-06 00:58 33.63655 -84.41521 968 ft 28 kts 90°
2026-05-06 00:58 33.63654 -84.41288 967 ft 27 kts 89°
2026-05-06 00:58 33.63655 -84.41067 965 ft 26 kts 90°
2026-05-06 00:59 33.63654 -84.40869 959 ft 18 kts 90°
2026-05-06 00:59 33.63648 -84.40764 955 ft 4 kts 131°
2026-05-06 00:59 33.63605 -84.40745 953 ft 9 kts 174°
2026-05-06 00:59 33.63534 -84.40743 952 ft 10 kts 181°
2026-05-06 01:00 33.63478 -84.40782 954 ft 13 kts 246°
2026-05-06 01:00 33.63443 -84.41003 963 ft 45 kts 258°
2026-05-06 01:00 33.63461 -84.41166 967 ft 21 kts 283°
2026-05-06 01:00 33.63472 -84.41419 969 ft 56 kts 270°
2026-05-06 01:01 33.63470 -84.42230 995 ft 133 kts 270°
2026-05-06 01:01 33.63460 -84.43539 1303 ft 172 kts 269°
2026-05-06 01:01 33.63451 -84.45049 1868 ft 196 kts 271°
2026-05-06 01:01 33.63528 -84.46782 2592 ft 223 kts 272°
2026-05-06 01:02 33.63611 -84.48695 3600 ft 245 kts 272°
2026-05-06 01:02 33.63688 -84.50799 4752 ft 263 kts 272°
2026-05-06 01:02 33.63751 -84.52990 5954 ft 276 kts 272°
2026-05-06 01:02 33.63803 -84.55347 7078 ft 292 kts 271°
2026-05-06 01:03 33.63837 -84.57803 8223 ft 305 kts 271°
2026-05-06 01:03 33.63905 -84.60408 8892 ft 334 kts 273°
2026-05-06 01:03 33.64019 -84.63277 9833 ft 352 kts 272°
2026-05-06 01:03 33.64135 -84.66219 10976 ft 361 kts 272°
2026-05-06 01:04 33.64253 -84.69263 12077 ft 371 kts 272°
2026-05-06 01:04 33.64373 -84.72362 13146 ft 380 kts 271°
2026-05-06 01:04 33.64494 -84.75529 14092 ft 388 kts 272°
2026-05-06 01:04 33.64614 -84.78715 15287 ft 388 kts 272°
2026-05-06 01:05 33.64812 -84.81934 16389 ft 388 kts 278°
2026-05-06 01:05 33.65200 -84.85147 17432 ft 394 kts 278°
2026-05-06 01:05 33.65587 -84.88385 18867 ft 400 kts 279°
2026-05-06 01:05 33.65979 -84.91679 20009 ft 413 kts 279°
2026-05-06 01:06 33.66393 -84.95161 20862 ft 432 kts 279°
2026-05-06 01:06 33.66817 -84.98749 22125 ft 440 kts 279°
2026-05-06 01:06 33.67246 -85.02374 23391 ft 446 kts 279°
2026-05-06 01:06 33.67683 -85.06081 24524 ft 455 kts 279°
2026-05-06 01:07 33.68120 -85.09797 25747 ft 462 kts 279°
2026-05-06 01:07 33.68568 -85.13616 26918 ft 468 kts 279°
2026-05-06 01:07 33.69025 -85.17538 28039 ft 475 kts 279°
2026-05-06 01:07 33.69484 -85.21474 29031 ft 483 kts 279°
2026-05-06 01:08 33.69942 -85.25420 29987 ft 489 kts 279°
2026-05-06 01:08 33.70412 -85.29483 30833 ft 495 kts 280°
2026-05-06 01:08 33.70885 -85.33585 31549 ft 501 kts 280°
2026-05-06 01:08 33.71363 -85.37729 32403 ft 502 kts 280°
2026-05-06 01:09 33.71829 -85.41810 33847 ft 490 kts 281°
2026-05-06 01:09 33.72291 -85.45824 34984 ft 489 kts 281°
2026-05-06 01:09 33.72752 -85.49853 35851 ft 489 kts 281°
2026-05-06 01:09 33.73205 -85.53838 36172 ft 479 kts 281°
2026-05-06 01:10 33.73652 -85.57770 36108 ft 481 kts 281°
2026-05-06 01:10 33.74551 -85.65733 36143 ft 481 kts 280°
2026-05-06 01:11 33.75442 -85.73656 36144 ft 482 kts 280°
2026-05-06 01:11 33.76337 -85.81678 36139 ft 482 kts 280°
2026-05-06 01:12 33.77227 -85.89693 36133 ft 483 kts 280°
2026-05-06 01:12 33.78108 -85.97678 36129 ft 483 kts 280°
2026-05-06 01:13 33.78978 -86.05614 36301 ft 481 kts 280°
2026-05-06 01:13 33.79843 -86.13550 36293 ft 482 kts 280°
2026-05-06 01:14 33.81136 -86.25501 36300 ft 483 kts 280°
2026-05-06 01:14 33.81994 -86.33498 36290 ft 483 kts 280°
2026-05-06 01:15 33.82847 -86.41495 36287 ft 484 kts 280°
2026-05-06 01:15 33.83697 -86.49517 36291 ft 484 kts 280°
2026-05-06 01:16 33.84534 -86.57466 36285 ft 484 kts 280°
2026-05-06 01:16 33.85374 -86.65495 36287 ft 484 kts 279°
2026-05-06 01:17 33.86204 -86.73479 36282 ft 484 kts 279°
2026-05-06 01:17 33.87036 -86.81525 36282 ft 484 kts 279°
2026-05-06 01:18 33.87858 -86.89533 36282 ft 485 kts 279°
2026-05-06 01:18 33.88676 -86.97555 36273 ft 485 kts 279°
2026-05-06 01:19 33.89493 -87.05621 36273 ft 485 kts 279°
2026-05-06 01:19 33.90300 -87.13637 36277 ft 485 kts 279°
2026-05-06 01:20 33.91102 -87.21661 36280 ft 485 kts 279°
2026-05-06 01:20 33.91904 -87.29741 36288 ft 485 kts 279°
2026-05-06 01:21 33.92695 -87.37754 36290 ft 486 kts 279°
2026-05-06 01:21 33.93742 -87.45744 36260 ft 482 kts 291°
2026-05-06 01:22 33.95195 -87.49347 36313 ft 477 kts 303°
2026-05-06 01:22 33.96881 -87.52750 36290 ft 478 kts 302°
2026-05-06 01:22 34.00227 -87.59706 36287 ft 480 kts 302°
2026-05-06 01:23 34.03555 -87.66673 36279 ft 480 kts 301°
2026-05-06 01:23 34.06869 -87.73625 36277 ft 481 kts 301°
2026-05-06 01:24 34.10203 -87.80633 36273 ft 481 kts 301°
2026-05-06 01:24 34.13515 -87.87608 36279 ft 482 kts 301°
2026-05-06 01:25 34.16839 -87.94621 36280 ft 482 kts 301°
2026-05-06 01:25 34.20170 -88.01667 36276 ft 483 kts 301°
2026-05-06 01:26 34.23602 -88.08613 36284 ft 482 kts 302°
2026-05-06 01:26 34.27052 -88.15538 36287 ft 482 kts 302°
2026-05-06 01:27 34.30518 -88.22509 36291 ft 482 kts 302°
2026-05-06 01:27 34.33897 -88.29320 35619 ft 468 kts 302°
2026-05-06 01:28 34.35553 -88.32664 34040 ft 469 kts 302°
2026-05-06 01:28 34.37217 -88.36027 32870 ft 463 kts 303°
2026-05-06 01:28 34.38842 -88.39314 32039 ft 452 kts 303°
2026-05-06 01:28 34.40439 -88.42548 31110 ft 445 kts 303°
2026-05-06 01:29 34.42001 -88.45712 30165 ft 439 kts 303°
2026-05-06 01:29 34.43559 -88.48871 29243 ft 433 kts 303°
2026-05-06 01:29 34.45080 -88.51955 28307 ft 427 kts 303°
2026-05-06 01:29 34.46588 -88.55016 27396 ft 421 kts 303°
2026-05-06 01:30 34.48069 -88.58025 26727 ft 418 kts 303°
2026-05-06 01:30 34.49543 -88.61028 26223 ft 412 kts 303°
2026-05-06 01:30 34.51002 -88.63998 25613 ft 409 kts 303°
2026-05-06 01:30 34.52446 -88.66940 25028 ft 405 kts 302°
2026-05-06 01:31 34.53865 -88.69835 24455 ft 401 kts 302°
2026-05-06 01:31 34.55283 -88.72729 23906 ft 397 kts 302°
2026-05-06 01:31 34.56676 -88.75575 23358 ft 394 kts 302°
2026-05-06 01:31 34.58081 -88.78449 23219 ft 401 kts 302°
2026-05-06 01:32 34.59505 -88.81364 23306 ft 401 kts 302°
2026-05-06 01:32 34.60915 -88.84254 23204 ft 392 kts 302°
2026-05-06 01:32 34.62280 -88.87053 23234 ft 384 kts 302°
2026-05-06 01:32 34.63570 -88.89878 23234 ft 386 kts 294°
2026-05-06 01:33 34.64342 -88.93009 23250 ft 389 kts 286°
2026-05-06 01:33 34.65031 -88.96168 23242 ft 390 kts 287°
2026-05-06 01:33 34.65726 -88.99348 23144 ft 383 kts 287°
2026-05-06 01:33 34.66406 -89.02459 22555 ft 383 kts 287°
2026-05-06 01:34 34.67085 -89.05570 21969 ft 383 kts 287°
2026-05-06 01:34 34.67762 -89.08666 21480 ft 379 kts 287°
2026-05-06 01:34 34.68466 -89.11702 20980 ft 376 kts 287°
2026-05-06 01:34 34.69180 -89.14780 20471 ft 373 kts 287°
2026-05-06 01:35 34.69873 -89.17771 19960 ft 371 kts 287°
2026-05-06 01:35 34.70566 -89.20768 19463 ft 368 kts 287°
2026-05-06 01:35 34.71256 -89.23753 18957 ft 366 kts 287°
2026-05-06 01:35 34.72046 -89.26685 18428 ft 363 kts 292°
2026-05-06 01:36 34.73283 -89.29314 17841 ft 360 kts 311°
2026-05-06 01:36 34.74957 -89.31552 17314 ft 357 kts 311°
2026-05-06 01:36 34.76516 -89.33832 16843 ft 355 kts 310°
2026-05-06 01:36 34.78055 -89.36188 16316 ft 353 kts 309°
2026-05-06 01:37 34.79553 -89.38534 15806 ft 352 kts 308°
2026-05-06 01:37 34.81043 -89.40890 15305 ft 350 kts 308°
2026-05-06 01:37 34.82504 -89.43212 14829 ft 348 kts 308°
2026-05-06 01:37 34.83967 -89.45546 14351 ft 346 kts 307°
2026-05-06 01:38 34.85427 -89.47880 13866 ft 344 kts 307°
2026-05-06 01:38 34.86827 -89.50182 13418 ft 341 kts 302°
2026-05-06 01:38 34.87716 -89.52821 12928 ft 339 kts 286°
2026-05-06 01:38 34.88094 -89.55631 12445 ft 336 kts 269°
2026-05-06 01:39 34.87689 -89.58415 11988 ft 334 kts 256°
2026-05-06 01:39 34.87133 -89.61144 11547 ft 331 kts 256°
2026-05-06 01:39 34.86571 -89.63832 11261 ft 330 kts 256°
2026-05-06 01:39 34.86322 -89.66542 11211 ft 315 kts 275°
2026-05-06 01:40 34.86919 -89.69041 11181 ft 300 kts 296°
2026-05-06 01:40 34.87941 -89.71202 10998 ft 293 kts 300°
2026-05-06 01:40 34.88987 -89.73321 10634 ft 292 kts 300°
2026-05-06 01:40 34.90038 -89.75420 10289 ft 291 kts 300°
2026-05-06 01:41 34.91094 -89.77522 9947 ft 290 kts 300°
2026-05-06 01:41 34.92139 -89.79603 9605 ft 289 kts 300°
2026-05-06 01:41 34.93196 -89.81708 9275 ft 291 kts 300°
2026-05-06 01:41 34.94257 -89.83755 9228 ft 283 kts 306°
2026-05-06 01:42 34.95734 -89.85252 9223 ft 270 kts 334°
2026-05-06 01:42 34.97268 -89.85765 9226 ft 258 kts 355°
2026-05-06 01:42 34.99031 -89.85880 9115 ft 248 kts 357°
2026-05-06 01:42 35.00750 -89.85947 8795 ft 248 kts 358°
2026-05-06 01:43 35.02482 -89.85989 8412 ft 248 kts 358°
2026-05-06 01:43 35.04202 -89.86024 8031 ft 249 kts 358°
2026-05-06 01:43 35.05947 -89.86058 7649 ft 249 kts 358°
2026-05-06 01:43 35.07681 -89.86093 7292 ft 248 kts 358°
2026-05-06 01:44 35.09409 -89.86130 6906 ft 247 kts 358°
2026-05-06 01:44 35.11118 -89.86166 6408 ft 247 kts 358°
2026-05-06 01:44 35.12838 -89.86202 5842 ft 248 kts 358°
2026-05-06 01:44 35.14554 -89.86238 5370 ft 246 kts 358°
2026-05-06 01:45 35.16259 -89.86274 4858 ft 246 kts 358°
2026-05-06 01:45 35.17969 -89.86313 4367 ft 245 kts 358°
2026-05-06 01:45 35.19659 -89.86351 3879 ft 244 kts 358°
2026-05-06 01:45 35.21357 -89.86389 3409 ft 243 kts 358°
2026-05-06 01:46 35.23032 -89.86432 3204 ft 238 kts 355°
2026-05-06 01:46 35.24600 -89.87009 3247 ft 235 kts 322°
2026-05-06 01:46 35.25653 -89.88453 3241 ft 227 kts 288°
2026-05-06 01:46 35.25897 -89.90316 3246 ft 218 kts 259°
2026-05-06 01:47 35.25708 -89.92148 3224 ft 217 kts 257°
2026-05-06 01:47 35.25508 -89.93951 3207 ft 216 kts 257°
2026-05-06 01:47 35.25302 -89.95794 3236 ft 216 kts 257°
2026-05-06 01:47 35.25091 -89.97529 3177 ft 200 kts 249°
2026-05-06 01:48 35.24318 -89.98748 3191 ft 177 kts 201°
2026-05-06 01:48 35.23122 -89.98788 3254 ft 177 kts 158°
2026-05-06 01:48 35.22003 -89.98177 3220 ft 179 kts 153°
2026-05-06 01:48 35.21054 -89.97182 3161 ft 180 kts 155°
2026-05-06 01:49 35.19862 -89.96981 3127 ft 177 kts 182°
2026-05-06 01:49 35.18628 -89.97137 2891 ft 174 kts 192°
2026-05-06 01:49 35.17456 -89.97372 2706 ft 170 kts 185°
2026-05-06 01:49 35.16273 -89.97454 2528 ft 171 kts 182°
2026-05-06 01:50 35.15096 -89.97478 2285 ft 169 kts 181°
2026-05-06 01:50 35.13924 -89.97474 2052 ft 168 kts 180°
2026-05-06 01:50 35.12751 -89.97456 1825 ft 168 kts 180°
2026-05-06 01:50 35.11577 -89.97434 1598 ft 169 kts 180°
2026-05-06 01:51 35.10412 -89.97411 1360 ft 161 kts 180°
2026-05-06 01:51 35.09368 -89.97389 1198 ft 144 kts 180°
2026-05-06 01:51 35.08379 -89.97368 986 ft 141 kts 179°
2026-05-06 01:51 35.07404 -89.97348 799 ft 141 kts 179°
2026-05-06 01:52 35.06412 -89.97327 611 ft 143 kts 179°
2026-05-06 01:52 35.05411 -89.97303 425 ft 144 kts 179°
2026-05-06 01:52 35.04400 -89.97281 304 ft 144 kts 179°
2026-05-06 01:52 35.03518 -89.97264 314 ft 101 kts 180°
2026-05-06 01:53 35.03041 -89.97257 317 ft 41 kts 179°
2026-05-06 01:53 35.02858 -89.97272 318 ft 17 kts 195°
2026-05-06 01:53 35.02764 -89.97313 322 ft 10 kts 211°
2026-05-06 01:53 35.02747 -89.97326 323 ft 0 kts 211°
2026-05-06 01:55 35.02743 -89.97329 323 ft 5 kts 212°
2026-05-06 01:55 35.02673 -89.97391 327 ft 13 kts 211°
2026-05-06 01:55 35.02599 -89.97421 328 ft 5 kts 187°
2026-05-06 01:56 35.02572 -89.97427 329 ft 0 kts 207°
2026-05-06 01:56 35.02571 -89.97430 329 ft 0 kts 226°
2026-05-06 01:56 35.02565 -89.97447 330 ft 6 kts 250°
2026-05-06 01:56 35.02556 -89.97509 334 ft 6 kts 266°
2026-05-06 01:57 35.02555 -89.97588 338 ft 10 kts 269°
2026-05-06 01:57 35.02554 -89.97664 342 ft 7 kts 269°
2026-05-06 01:57 35.02553 -89.97714 344 ft 4 kts 269°
2026-05-06 01:57 35.02553 -89.97725 344 ft 0 kts 269°
2026-05-06 01:59 35.02553 -89.97727 345 ft 2 kts 269°
2026-05-06 01:59 35.02554 -89.97773 345 ft 2 kts 276°
2026-05-06 01:59 35.02563 -89.97794 346 ft 4 kts 317°
2026-05-06 02:00 35.02607 -89.97806 345 ft 8 kts 355°
2026-05-06 02:00 35.02724 -89.97810 341 ft 26 kts 359°
2026-05-06 02:00 35.02943 -89.97815 335 ft 34 kts 359°
2026-05-06 02:00 35.03188 -89.97820 328 ft 36 kts 359°
2026-05-06 02:01 35.03381 -89.97825 324 ft 22 kts 359°
2026-05-06 02:01 35.03529 -89.97827 320 ft 21 kts 359°
2026-05-06 02:01 35.03609 -89.97829 317 ft 0 kts 359°
2026-05-06 02:02 35.03635 -89.97830 316 ft 13 kts 359°
2026-05-06 02:02 35.03714 -89.97832 314 ft 10 kts 359°
2026-05-06 02:02 35.03797 -89.97834 313 ft 12 kts
2026-05-06 02:03 35.03886 -89.97835 311 ft 13 kts 359°
2026-05-06 02:03 35.03984 -89.97835 309 ft 14 kts 359°
2026-05-06 02:03 35.04091 -89.97838 307 ft 15 kts 360°
2026-05-06 02:03 35.04204 -89.97835 305 ft 16 kts
2026-05-06 02:04 35.04269 -89.97842 303 ft 4 kts 332°
2026-05-06 02:04 35.04281 -89.97860 303 ft 2 kts 301°
2026-05-06 02:04 35.04292 -89.97882 303 ft 3 kts 301°
2026-05-06 02:04 35.04303 -89.97903 303 ft 0 kts 301°